Regional Weather Roundup
Issued by NWS

Home | Current Version | Previous Version | Graphics & Text | Print | Product List | Glossary On
Versions: 1 2 3 4 5 6 7 8 9 10 11 12 13 14 15 16 17 18 19 20 21 22 23 24 25 26 27 28 29 30 31 32 33 34 35 36 37 38 39 40 41 42 43 44 45 46 47 48 49 50
000
ASUS43 KMKX 301600
RWRWI

WISCONSIN REGIONAL WEATHER ROUNDUP
NATIONAL WEATHER SERVICE MILWAUKEE/SULLIVAN WI
1100 AM CDT SAT AUG 30 2014

NOTE: "FAIR" INDICATES FEW OR NO CLOUDS BELOW 12,000 FEET WITH NO
SIGNIFICANT WEATHER AND/OR OBSTRUCTIONS TO VISIBILITY.

WIZ001-002-006>008-014>016-023>028-301700-
NORTHWEST WISCONSIN

CITY           SKY/WX    TMP DP  RH WIND       PRES   REMARKS
SUPERIOR ARPT  CLOUDY    65  61  85 E3        29.86R
ASHLAND        CLOUDY    63  59  87 N9        29.87R
HAYWARD        CLOUDY    62  60  93 N8        29.85S
SIREN          CLOUDY    64  60  86 NE7       29.86R
RICE LAKE      CLOUDY    64  61  90 N10       29.86R
LADYSMITH      CLOUDY    64  62  93 N8        29.85R
EAU CLAIRE     CLOUDY    71  66  84 N8        29.80R
MENOMONIE      CLOUDY    69  66  91 NW8       29.82R
NEW RICHMOND   CLOUDY    67  63  86 N8        29.84S
OSCEOLA        CLOUDY    65  64  97 N6        29.88R
$$

WIZ003>005-009-010-017-018-301700-
NORTH CENTRAL WISCONSIN

CITY           SKY/WX    TMP DP  RH WIND       PRES   REMARKS
WOODRUFF       DRIZZLE   63  61  93 N6        29.81R
RHINELANDER    LGT RAIN  65  64  97 N3        29.80S FOG
EAGLE RIVER    HVY RAIN  64  64 100 N8        29.80R
LAND O LAKES   DRIZZLE   62  61  96 N9        29.82R
PHILLIPS       CLOUDY    62  61  95 N6        29.82R
TOMAHAWK       CLOUDY    67  63  87 NW7       29.80R
MEDFORD        CLOUDY    67  65  92 NW6       29.81R
MERRILL        CLOUDY    68  65  90 NW7       29.79R
$$

WIZ029-030-035-036-043>047-301700-
CENTRAL WISCONSIN

CITY           SKY/WX    TMP DP  RH WIND       PRES   REMARKS
WAUSAU         PTSUNNY   72  65  78 W9        29.77S
MOSINEE        PTSUNNY   70  66  88 NW8       29.79R
MARSHFIELD     CLOUDY    70  66  87 W6        29.80R
STEVENS POINT  CLOUDY    66  64  92 CALM      29.79R
WAUPACA        PTSUNNY   73  67  81 W10       29.77R
WAUTOMA        LGT RAIN  73  68  83 W7        29.78S
WISC RAPIDS    LGT RAIN  72  66  81 W7        29.80R
CAMP DOUGLAS   DRIZZLE   68  68 100 N2        29.79S
$$

WIZ011>013-019>022-031-037>040-048>050-301700-
NORTHEAST WISCONSIN

CITY           SKY/WX    TMP DP  RH WIND       PRES   REMARKS
ANTIGO         CLOUDY    68  64  87 NW13      29.79R
STURGEON BAY   CLOUDY    73  66  78 S12       29.74F
GREEN BAY      CLOUDY    73  67  81 SW10G20   29.74R
MANITOWOC      NOT AVBL
APPLETON       PTSUNNY   72  66  83 SW12      29.77R
CLINTONVILLE   DRIZZLE   70  68  94 NW8       29.74S
OSHKOSH        CLOUDY    75  67  76 SW8G18    29.76R
$$

WIZ032>034-041-042-053>061-301700-
SOUTHWEST WISCONSIN

CITY           SKY/WX    TMP DP  RH WIND       PRES   REMARKS
LA CROSSE      CLOUDY    72  67  84 NW9       29.80R
SPARTA         CLOUDY    68  67  94 N8        29.81R
VIROQUA        CLOUDY    68  68 100 NW9       29.82R
BOSCOBEL       CLOUDY    71  67  87 W7        29.81R
PRAIRIE DU CHI CLOUDY    70  66  87 W7        29.81R
PLATTEVILLE    CLOUDY    70  68  95 W12       29.83S
$$

WIZ056-057-062-063-064-067-068-301700-
SOUTH CENTRAL WISCONSIN

CITY           SKY/WX    TMP DP  RH WIND       PRES   REMARKS
BARABOO/DELLS  CLOUDY    71  65  81 W5        29.79R
LONE ROCK      NOT AVBL
WATERTOWN      CLOUDY    71  68  90 SW9G17    29.79S FOG
MADISON        LGT RAIN  70  67  90 SW8       29.80R FOG
MIDDLETON      CLOUDY    70  68  95 SW9       29.80S
MONROE         CLOUDY    70  64  83 SW22      29.82R
JANESVILLE     LGT RAIN  72  70  94 SW8       29.81S
$$

WIZ051-052-058>065-066-070>072-301700-
SOUTHEAST WISCONSIN

CITY           SKY/WX    TMP DP  RH WIND       PRES   REMARKS
MILWAUKEE      MOSUNNY   78  66  66 SW14G23   29.80F HX  80
WAUKESHA       PTSUNNY   73  64  73 SW8       29.81F
MILWAUKEE/TIMM PTSUNNY   75  63  64 SW14G23   29.80F
RACINE         PTSUNNY   79  68  69 SW14G24   29.83S HX  81
BURLINGTON     LGT RAIN  71  68  90 SW6       29.81F
KENOSHA        CLOUDY    77  68  73 SW14G22   29.82S
FOND DU LAC    LGT RAIN  71  68  90 W7        29.77S FOG
SHEBOYGAN      CLOUDY    76  66  71 SW12G21   29.77S
WEST BEND      PTSUNNY   73  63  68 SW14G20   29.79S
JUNEAU         CLOUDY    72  66  82 S14G20    29.80S
$$

LSZ147-162-301700-
LAKE SUPERIOR

STATION/POSITION TIME  TEMP    WIND        PRES    WAVE
                       AIR SEA DIR/SP/G            HT/PER
                 (UTC) (F)     (DEG/KT/KT) (MB)    (FT/S)
W MID LAKE BUOY  1450   58 57   10/  8/  8 1010.1R   1
DEVILS ISLAND    1500   60      40/  5/  5 1010.7R
PORT WING        1540   63      10/  3/  5 1011.5R
SAXON HARBOR     1500   62      30/  8/ 10 1010.5R
$$

LMZ867-665-643>646-301700-
LAKE MICHIGAN

STATION/POSITION TIME  TEMP    WIND        PRES    WAVE
                       AIR SEA DIR/SP/G            HT/PER
                 (UTC) (F)     (DEG/KT/KT) (MB)    (FT/S)
N MID LAKE BUOY  1450   67 65  200/ 16/ 17 1006.7F   3/ 6
NORTHPORT PIER   1500   69     190/  7/ 11 1006.8F
SISTER BAY       1541   76     250/ 13/ 14   N/A
KEWAUNEE LAKESHO 1500   63     180/ 13/ 15 1006.7F
SHEBOYGAN LAKESH 1500   69 57  180/ 19/ 22 1008.0F
ATWATER BUOY     1500   71     210/ 16/ 21 1010.2F
MILWAUKEE LAKESH 1500   76     230/ 17/ 23   N/A
S MID LAKE BUOY  1350   71 69  180/ 12/ 14   N/A
KENOSHA   LAKESH 1500   76     210/ 17/ 22 1009.5F
$$

TC  - TEMPERATURE IN CELSIUS
VSB - VISIBILITY IN STATUTE MILES
WCI - WIND CHILL INDEX
HX  - HEAT INDEX




USA.gov is the U.S. government's official web portal to all federal, state and local government web resources and services.